sat.trackr.live / text

‹ back to catalog

STARLINK-35984

NORAD 66814 · 2025-278Z

PAYLOAD ACTIVE UNKNOWN

§ Identity

Operator
Country
US
Launch date
2025-12-01
Launch site
AFETR
Launch vehicle
Mass (kg)
RCS (m²)

Purposes: comms

External: N2YO · Heavens-Above · Gunter

§ Orbital elements

Epoch: 2026-09-20T22:36:09.837792Z

Period
94.27 min
Inclination
42.9970°
Eccentricity
0.0000551
Mean motion
15.27587123 rev/d
Perigee alt
482.6 km
Apogee alt
483.4 km
Semi-major
6,861.2 km
B*
3.9547e-4
RAAN
91.4002°
Arg perigee
18.3612°
Mean anomaly
341.7259°
Rev number
4,507

§ Raw data

STARLINK-359841 66814U 25278Z   26263.94178053  .00010639  00000+0  39547-3 0  99942 66814  42.9970  91.4002 0000551  18.3612 341.7259 15.27587123 45074

JSON: /api/v1/satellites/66814 · /tle

For live sub-satellite position, see the globe view (requires WebGL).

§ Visibility from observer

Set your observer location to see the next 7 days of passes ≥ 10°. The values pass through the URL so the page stays shareable.

No JS? Fill the form by hand. The geolocation button needs JavaScript.